Location: Castle
(40.7167°S, 175.9500°E)
Time: 19:02:21
(UTC+00:00)

Cosmos 2181 Rocket - Pass Details

Date: 04 August 2024
Orbit: 952 x 1013 km, 82.9° (Epoch: 17 September)

Event Time Altitude Azimuth Distance (km) Brightness Sun altitude
Rises 18:33:48 0° 190° (S) 3,737 6.8 -8.8°
Reaches altitude 10° 18:36:22 10° 191° (S) 2,773 6.1 -8.4°
Maximum altitude 18:42:41 73° 274° (W) 1,026 4.0 -7.2°
Drops below altitude 10° 18:48:51 10° 357° (N) 2,699 6.5 -6.1°
Sets 18:51:19 0° 359° (N) 3,631 7.2 -5.7°
